www.pogodaiklimat.ru
ПОГОДА на Базе ВВС Эндрюс
Время
и дата
10:10 18.05
10:48 18.05
10:55 18.05
15:04 18.05
17:06 18.05
17:55 18.05
18:55 18.05
19:42 18.05
19:55 18.05
20:55 18.05
21:55 18.05
22:40 18.05
22:55 18.05
23:55 18.05
00:40 19.05
00:55 19.05
01:25 19.05
01:55 19.05
02:10 19.05
02:55 19.05
03:08 19.05
03:25 19.05
03:55 19.05
04:20 19.05
08:40 19.05
13:55 19.05
14:55 19.05
15:55 19.05
17:55 19.05
20:55 19.05
04:44 20.05
04:55 20.05
05:55 20.05
07:40 20.05
08:55 20.05
11:55 20.05
12:55 20.05
13:55 20.05
14:55 20.05
15:55 20.05
16:55 20.05
17:55 20.05
18:55 20.05
19:55 20.05
20:55 20.05
21:55 20.05
22:55 20.05
23:55 20.05
Ветер
(напр.,м/с)
Видим. Явления Облачность Т
(С)
Тd
(С)
f
(%)
Тe
(С)
Тes
(С)
Комфортность P
(гПа)
Po
(гПа)
Тmin
(С)
Tmax
(С)
R
(мм)
R24
(мм)
S
(см)
В 2 16 км 8/8 270 м +17.0 +15.0 88 +17 +20 1014.8 1003.8
ЮВ 2 16 км слабая морось 8/8 270 m
[St]
+17.0 +15.0 88 +17 +20 1015.1 1004.1
ЮВ 2 16 км слабая морось 8/8 330 m
[St]
+17.2 +14.5 84 +18 +21 1015.1 1004.1
В 3 10 км слабая морось 10/10 720 m
[St]
+18.0 +16.0 88 +18 +18 1003.5
ЮВ 2 16 км слабая морось 10/10 210 m
[St]
+17.0 +16.0 94 +17 +17 1014.5 1003.5
ЮВ 2 16 км 10/10 270 м +16.7 +15.2 91 +17 +17 1014.5 1003.5
штиль 0 16 км 8/8 750 м +16.6 +15.3 92 +16 +17 1014.1 1003.1 +16.4 +18.5 2.3
штиль 0 16 км 8/8 120 м +16.0 +15.0 94 +16 +16 1014.1 1003.1
штиль 0 16 км 8/8 150 м +16.4 +15.3 93 +16 +16 1014.5 1003.5
штиль 0 16 км 8/8 240 м +16.3 +15.3 94 +16 +16 1014.5 1003.5
С 2 16 км 8/8 +16.4 +15.4 94 +16 +16 1014.5 1003.5
штиль 0 13 км 8/8 510 m
[Ac]
+16.0 +15.0 94 +16 +16 1014.8 1003.8
штиль 0 11 км 8/8 510 м +16.2 +15.2 94 +16 +16 1014.8 1003.8
С 2 10 км дымка 10/10 510 м +16.5 +15.5 94 +17 +17 1014.5 1003.5
С 2 10 км дымка 8/8 150 м +17.0 +16.0 94 +17 +17 1014.5 1003.5
С 2 8 км дымка 8/8 150 м +16.8 +15.8 94 +17 +17 1014.5 1003.5 +15.9 +16.8
С 2 8 км дымка 8/8 +17.0 +16.0 94 +17 +17 1014.1 1003.1
С 2 8 км дымка 8/8 +16.7 +15.7 94 +17 +17 1014.5 1003.5
С 2 13 км 8/8 270 м +17.0 +16.0 94 +17 +17 1014.5 1003.5
С 2 10 км дымка 8/8 120 м +16.5 +15.5 94 +17 +17 1014.1 1003.1
С 3 10 км дымка 8/8 +17.0 +16.0 94 +17 +17 1014.5 1003.5
С 2 10 км дымка 8/8 150 м +16.0 +15.0 94 +16 +16 1014.5 1003.5
С 2 10 км дымка 8/8 540 м +16.2 +15.2 94 +16 +16 1014.5 1003.5
С 3 13 км 8/8 +16.0 +15.0 94 +15 +15 1014.8 1003.8
штиль 0 16 км 8/8 210 m
[Ac]
+18.0 +16.0 88 +18 +20 1016.2 1005.1
В 3 16 км 5/2
[Ac]
+21.0 +16.0 73 +25 +34 комфорт 1004.5
З 2 16 км 8/8 1110 м +20.0 +15.0 73 +23 +26 комфорт 1003.8
штиль 0 16 км 5/5 900 m
[Ac]
+23.0 +16.0 65 +27 +36 душно 1003.8
СВ 2 16 км 2/2 1020 м +23.0 +16.0 65 +27 +31 душно 1003.5
штиль 0 16 км ясно +17.0 +16.0 94 +17 +17 1004.8
ЮВ 2 10 км дымка 10/10 +14.0 +13.0 94 +13 +13 1016.1 1005.1
штиль 0 600 м туман ?/? +14.6 +13.8 95 +14 +14 1016.1 1005.1
штиль 0 16 км 10/10 120 м +15.1 +14.3 95 +15 +15 1017.1 1006.1
Ю 2 16 км 10/10 180 м +17.0 +15.0 88 +17 +17 1018.8 1007.8
штиль 0 16 км 10/10 390 м +18.2 +14.7 80 +18 +18 1018.2 1007.2
штиль 0 16 км 8/8 630 m
[Ac]
+20.7 +15.9 74 +24 +29 комфорт 1017.8 1006.8
штиль 0 16 км 8/2 660 m
[Ac]
+22.3 +15.9 67 +26 +37 жарко 1017.5 1006.5 +15.7 +22.7
штиль 0 16 км 2/2 810 m
[Ac]
+23.5 +16.5 65 +27 +48 душно 1016.8 1005.8
штиль 0 16 км ясно +23.8 +16.3 63 +27 +50 жарко 1016.4 1005.5
ЮВ 3 16 км 2/2 960 м +24.6 +17.1 63 +28 +37 душно 1015.8 1004.8
ЮВ 2 16 км ясно +24.6 +16.6 61 +28 +36 душно 1015.4 1004.5
ЮВ 3 16 км ясно +23.8 +17.5 68 +28 +31 душно 1015.1 1004.1
ЮВ 3 16 км ясно +21.4 +17.2 77 +25 +26 комфорт 1016.1 1005.1 +21.4 +24.8
ЮВ 3 16 км ясно +18.9 +16.1 84 +20 +20 1015.8 1004.8
Ю 2 16 км ясно +18.4 +16.0 86 +20 +20 1016.5 1005.5
Ю 2 16 км ясно +17.8 +15.6 87 +18 +18 1016.5 1005.5
Ю 2 16 км ясно +16.5 +15.0 91 +17 +17 1016.1 1005.1
Ю 2 16 км ясно +16.9 +15.4 91 +17 +17 1016.1 1005.1
Местоположение метеостанции Andrews Air Force Base: широта 38.8167 долгота -76.8500 высота над уровнем моря 86 м.
В архиве по умолчанию представлена погода на Базе ВВС Эндрюс за последние 1-2 суток. Обновление информации о фактической погоде в базе происходит ежечасно! Архивные данные за месяц целиком и за предыдущие месяцы Вы можете получить, выбрав интересующий диапазон дат из раскрывающегося списка и нажав кнопку "Ввод!".
Внимание! Архив погоды МЕТАР в базе сайта по станциям, не включенным в климатический монитор, хранится не более 60 дней. Нет смысла пытаться выбрать более раннюю дату.
*Определитесь, кто Вы:
Внимание! Время в таблицах - местное (без учета летнего времени). Для получения всемирного времени необходимо вычесть поправку, которая равна -5 ч.
Смотрите также архив погоды в соседних городах и на ближайших метеорологических станциях:
Партнеры нашего сайта:      
Пояснения к столбцам:
  • Ветер - указаны скорость ветра в м/с - средняя за 10 мин, порывы в срок и между сроками (в фигурных скобках) и направление, откуда дует ветер: С - северный,
  • СВ - северо-восточный, В - восточный, ЮВ - юго-восточный, Ю - южный, ЮЗ - юго-западный, З - западный, СЗ - северо-западный.
  • Видимость - горизонтальная дальность видимости в метрах или километрах. При видимости от 1 до 10 км при отсутствии осадков обычно наблюдается дымка, при ухудшении видимости до 1 км и менее - туман. В сухую погоду видимость может ухудшаться дымом, пылью или мглою.
  • Явления - указаны атмосферные явления, наблюдавшиеся в срок или в последний час перед сроком; фигурными скобками обозначены явления, наблюдавшиеся между сроками (за 1-3 часа до срока); квадратными скобками обозначены град или гололедные отложения с указанием их диаметра в мм.
  • Облачность - указаны через наклонную черту общая и нижняя облачность в баллах и высота нижней границы облаков в метрах; квадратными скобками обозначены формы облаков: Ci - перистые, Cs - перисто-слоистые, Cc - перисто-кучевые, Ac - высококучевые, As - высокослоистые, Sc - слоисто-кучевые, Ns - слоисто-дождевые, Cu - кучевые, Cb - кучево-дождевые. Подробнее классификацию облаков см. в Атласе облаков (PDF).
  • T - Температура воздуха - температура, измеренная на высоте 2 м над землей.
  • Td - Температура точки росы - температура, при понижении до которой содержащийся в воздухе водяной пар достигнет насыщения.
  • f - Относительная влажность воздуха - влажноcть воздуха, измеренная на высоте 2 м над землей.
  • Te - Эффективная температура - температура, которую ощущает одетый по сезону человек в тени. Характеристика душности погоды. При расчете учитывается влияние влажности воздуха и скорости ветра на теплоощущения человека.
  • Tes - Эффективная температура на солнце - температура, которую ощущает человек, с поправкой на солнечный нагрев. Характеристика знойности погоды. Зависит от высоты солнца над горизонтом, облачности и скорости ветра. Ночью, в пасмурную погоду, а также при ветре 12 м/с и более поправка равна нулю.
  • P - Атмосферное давление - приведенное к уровню моря атмосферное давление.
  • Po - Атмосферное давление - измеренное на уровне метеостанции атмосферное давление.
  • Tmin - Минимальная температура - минимум температуры воздуха на высоте 2 м над землей.
  • Tmax - Максимальная температура - максимум температуры воздуха на высоте 2 м над землей.
  • R - Количество осадков - Количество выпавших осадков за период времени, мм. При наведении курсора мыши на число - период времени, за который выпало указанное количество осадков.
  • R24 - Количество осадков - Количество выпавших осадков за 24 часа, мм.
  • S - Снежный покров - Высота снежного покрова, см. При наведении курсора мыши на число - состояние снежного покрова и степень покрытия местности в баллах.